GW2381 Weather Reports


Display with metric or nautical units.
time (UTC)temp
F
wind
direction
speed
MPH
gust
MPH
rain 1hr
in
rain 24hr
in
rain mn
in
humidity
%
barometer
mb
20260505052528 59 199 1.0 1.0 0.00 0.00 0.00 50 1004.8
20260505052025 60 199 0.0 1.0 0.00 0.00 0.00 50 1004.7
20260505051522 60 194 1.0 1.0 0.00 0.00 0.00 50 1004.7
20260505051020 60 193 1.0 1.0 0.00 0.00 0.00 50 1005.0
20260505050518 60 196 1.0 1.0 0.00 0.00 0.00 48 1005.0
20260505041445 63 172 3.0 3.0 0.00 0.00 0.00 44 1004.3
20260505040943 63 164 3.0 5.0 0.00 0.00 0.00 44 1004.3
20260505040440 63 131 3.0 3.0 0.00 0.00 0.00 43 1004.0
20260505035937 63 173 2.0 3.0 0.00 0.00 0.00 41 1003.8
20260505035433 63 132 1.0 1.0 0.00 0.00 0.00 41 1004.0
20260505034931 63 169 1.0 2.0 0.00 0.00 0.00 41 1003.7
20260505034427 64 149 1.0 2.0 0.00 0.00 0.00 41 1003.8
20260505033924 64 198 1.0 1.0 0.00 0.00 0.00 41 1003.7
20260505033421 64 192 1.0 1.0 0.00 0.00 0.00 40 1003.7
20260505032919 64 202 1.0 1.0 0.00 0.00 0.00 39 1003.5
20260505032416 64 203 0.0 1.0 0.00 0.00 0.00 38 1003.3
20260505031912 64 204 0.0 0.0 0.00 0.00 0.00 38 1003.3
20260505031409 64 204 0.0 0.0 0.00 0.00 0.00 37 1003.1
20260505030906 64 203 0.0 0.0 0.00 0.00 0.00 37 1003.3
20260505030402 65 203 0.0 0.0 0.00 0.00 0.00 36 1003.0
20260505025857 65 204 1.0 2.0 0.00 0.00 0.00 35 1003.0
20260505025355 65 208 1.0 1.0 0.00 0.00 0.00 35 1002.7
20260505024854 65 215 1.0 1.0 0.00 0.00 0.00 35 1002.9
20260505024351 66 216 0.0 1.0 0.00 0.00 0.00 35 1002.7
20260505023848 66 218 2.0 2.0 0.00 0.00 0.00 34 1002.6
20260505023345 66 210 1.0 1.0 0.00 0.00 0.00 34 1002.6
20260505022842 67 208 1.0 2.0 0.00 0.00 0.00 33 1002.6
20260505022339 67 182 1.0 1.0 0.00 0.00 0.00 33 1002.8
20260505021836 67 201 1.0 1.0 0.00 0.00 0.00 33 1002.7
20260505021333 68 213 1.0 1.0 0.00 0.00 0.00 33 1002.7
20260505020828 68 196 2.0 2.0 0.00 0.00 0.00 32 1002.8
20260505020324 69 225 5.0 6.0 0.00 0.00 0.00 32 1002.7
20260505015821 69 185 1.0 1.0 0.00 0.00 0.00 31 1002.6
20260505015318 70 184 1.0 2.0 0.00 0.00 0.00 31 1002.7
20260505014816 70 192 3.0 3.0 0.00 0.00 0.00 30 1002.6
20260505014313 71 173 2.0 3.0 0.00 0.00 0.00 29 1002.2
20260505013809 71 187 1.0 2.0 0.00 0.00 0.00 29 1002.2
20260505013306 71 199 3.0 3.0 0.00 0.00 0.00 29 1002.3
20260505012805 71 193 1.0 2.0 0.00 0.00 0.00 28 1002.6
20260505012304 71 196 2.0 2.0 0.00 0.00 0.00 27 1002.3
20260505011758 71 164 2.0 3.0 0.00 0.00 0.00 27 1002.6
20260505011255 72 183 2.0 3.0 0.00 0.00 0.00 27 1002.7
20260505010750 72 138 3.0 5.0 0.00 0.00 0.00 27 1002.6
20260505010247 72 198 2.0 2.0 0.00 0.00 0.00 28 1002.8
20260505005743 73 197 2.0 2.0 0.00 0.00 0.00 28 1002.7
20260505005240 72 206 2.0 2.0 0.00 0.00 0.00 27 1002.7
20260505004737 72 206 3.0 3.0 0.00 0.00 0.00 28 1002.9
20260505004233 72 211 3.0 3.0 0.00 0.00 0.00 28 1002.8
20260505003731 72 208 6.0 7.0 0.00 0.00 0.00 28 1003.0
20260505003229 72 221 1.0 2.0 0.00 0.00 0.00 28 1003.0
20260505002725 72 121 4.0 7.0 0.00 0.00 0.00 28 1002.9
20260505002222 72 148 5.0 8.0 0.00 0.00 0.00 27 1003.1
20260505001720 72 158 4.0 7.0 0.00 0.00 0.00 29 1003.1
20260505001217 72 215 7.0 8.0 0.00 0.00 0.00 29 1003.0
20260505000714 72 213 6.0 8.0 0.00 0.00 0.00 29 1003.0
20260505000212 72 155 2.0 2.0 0.00 0.00 0.00 29 1003.2
20260504235708 73 216 11.0 15.0 0.00 0.00 0.00 25 1003.1
20260504235204 72 187 7.0 9.0 0.00 0.00 0.00 26 1003.1
20260504234702 72 242 12.0 17.0 0.00 0.00 0.00 27 1003.3
20260504234159 73 208 9.0 13.0 0.00 0.00 0.00 27 1003.2
20260504233654 73 209 10.0 13.0 0.00 0.00 0.00 25 1003.1
20260504233150 73 228 4.0 5.0 0.00 0.00 0.00 26 1003.2
20260504232648 73 205 7.0 8.0 0.00 0.00 0.00 27 1003.1
20260504232145 73 193 5.0 6.0 0.00 0.00 0.00 25 1003.0
20260504231642 73 215 5.0 7.0 0.00 0.00 0.00 24 1003.1
20260504231138 73 256 3.0 6.0 0.00 0.00 0.00 26 1003.0
20260504230634 73 215 6.0 13.0 0.00 0.00 0.00 24 1003.2
20260504230133 73 225 3.0 3.0 0.00 0.00 0.00 25 1003.2
20260504225631 73 243 4.0 5.0 0.00 0.00 0.00 27 1003.2
20260504225127 73 252 8.0 9.0 0.00 0.00 0.00 27 1003.2
20260504224624 73 206 9.0 11.0 0.00 0.00 0.00 27 1003.2
20260504224121 74 224 6.0 8.0 0.00 0.00 0.00 27 1003.3
20260504223618 73 211 4.0 6.0 0.00 0.00 0.00 29 1003.3
20260504223114 73 217 4.0 5.0 0.00 0.00 0.00 27 1003.5
20260504222611 73 270 5.0 7.0 0.00 0.00 0.00 27 1003.1
20260504222108 73 205 7.0 13.0 0.00 0.00 0.00 28 1003.1
20260504221605 75 201 3.0 6.0 0.00 0.00 0.00 28 1003.3
20260504221102 75 172 7.0 9.0 0.00 0.00 0.00 21 1003.3
20260504220558 75 278 4.0 5.0 0.00 0.00 0.00 23 1003.3
20260504220055 75 238 3.0 3.0 0.00 0.00 0.00 23 1003.1
20260504215552 74 286 3.0 3.0 0.00 0.00 0.00 23 1003.2
20260504215050 76 275 2.0 2.0 0.00 0.00 0.00 23 1003.2
20260504214545 75 222 4.0 5.0 0.00 0.00 0.00 25 1003.3
20260504214042 76 257 2.0 2.0 0.00 0.00 0.00 23 1003.6
20260504213538 76 198 2.0 3.0 0.00 0.00 0.00 23 1003.7
20260504213035 77 252 4.0 5.0 0.00 0.00 0.00 21 1003.8
20260504212531 77 267 3.0 6.0 0.00 0.00 0.00 22 1003.8
20260504212029 76 208 3.0 3.0 0.00 0.00 0.00 21 1003.9
20260504211525 76 227 5.0 6.0 0.00 0.00 0.00 20 1004.0
20260504211022 75 275 3.0 3.0 0.00 0.00 0.00 22 1003.9
20260504210519 77 304 3.0 3.0 0.00 0.00 0.00 21 1004.3
20260504210016 75 247 4.0 6.0 0.00 0.00 0.00 24 1003.9
20260504205514 74 284 1.0 1.0 0.00 0.00 0.00 23 1004.1
20260504205012 75 262 1.0 2.0 0.00 0.00 0.00 24 1004.1
20260504204510 75 331 4.0 6.0 0.00 0.00 0.00 23 1004.3
20260504204008 75 312 3.0 3.0 0.00 0.00 0.00 22 1004.5
20260504203506 76 259 1.0 2.0 0.00 0.00 0.00 21 1004.4
20260504203003 75 294 2.0 2.0 0.00 0.00 0.00 23 1004.4
20260504202458 76 210 3.0 5.0 0.00 0.00 0.00 24 1004.7
20260504201955 74 259 0.0 1.0 0.00 0.00 0.00 22 1004.7
20260504201453 74 269 5.0 7.0 0.00 0.00 0.00 22 1004.6
20260504200950 74 259 5.0 6.0 0.00 0.00 0.00 23 1004.8
20260504200447 73 305 5.0 5.0 0.00 0.00 0.00 23 1004.8
20260504195943 73 305 4.0 5.0 0.00 0.00 0.00 23 1004.6
20260504195439 75 303 5.0 6.0 0.00 0.00 0.00 24 1004.8
20260504194936 74 318 5.0 6.0 0.00 0.00 0.00 24 1004.7
20260504194432 73 293 3.0 5.0 0.00 0.00 0.00 26 1004.7
20260504193928 74 272 4.0 5.0 0.00 0.00 0.00 27 1005.0
20260504193425 75 260 5.0 7.0 0.00 0.00 0.00 27 1005.0
20260504192924 73 302 3.0 6.0 0.00 0.00 0.00 27 1004.9
20260504192421 74 316 7.0 9.0 0.00 0.00 0.00 27 1004.9
20260504191920 74 264 3.0 3.0 0.00 0.00 0.00 25 1004.9
20260504191418 75 273 2.0 2.0 0.00 0.00 0.00 29 1005.3
20260504190913 74 306 7.0 7.0 0.00 0.00 0.00 26 1005.0
20260504190409 74 304 6.0 10.0 0.00 0.00 0.00 27 1005.2
20260504185906 74 210 2.0 3.0 0.00 0.00 0.00 25 1005.4
20260504185403 74 245 3.0 3.0 0.00 0.00 0.00 25 1005.3
20260504184858 74 271 3.0 3.0 0.00 0.00 0.00 26 1005.5
20260504184354 73 242 2.0 2.0 0.00 0.00 0.00 24 1005.6
20260504183850 73 209 3.0 3.0 0.00 0.00 0.00 25 1005.3
20260504183348 74 235 1.0 1.0 0.00 0.00 0.00 26 1005.4
20260504182845 72 308 3.0 3.0 0.00 0.00 0.00 25 1005.7
20260504182343 73 305 6.0 8.0 0.00 0.00 0.00 27 1005.6
20260504181839 72 248 3.0 3.0 0.00 0.00 0.00 26 1005.7
20260504181337 73 263 5.0 6.0 0.00 0.00 0.00 26 1005.7
20260504180836 73 161 0.0 1.0 0.00 0.00 0.00 28 1005.7
20260504180334 72 162 2.0 2.0 0.00 0.00 0.00 27 1005.6
20260504175832 72 92 1.0 2.0 0.00 0.00 0.00 29 1005.8
20260504175328 72 177 3.0 3.0 0.00 0.00 0.00 28 1006.0
20260504174826 72 135 3.0 5.0 0.00 0.00 0.00 28 1006.3
20260504174323 72 216 3.0 7.0 0.00 0.00 0.00 29 1006.0
20260504173820 71 153 1.0 2.0 0.00 0.00 0.00 28 1006.1
20260504173317 72 276 3.0 3.0 0.00 0.00 0.00 30 1006.3
20260504172814 71 186 0.0 1.0 0.00 0.00 0.00 29 1006.1
20260504172311 71 95 2.0 2.0 0.00 0.00 0.00 29 1006.4
20260504171807 72 97 4.0 6.0 0.00 0.00 0.00 29 1006.1
20260504171304 72 172 0.0 1.0 0.00 0.00 0.00 29 1006.3
20260504170801 71 224 1.0 1.0 0.00 0.00 0.00 31 1006.2
20260504170258 69 218 0.0 0.0 0.00 0.00 0.00 30 1006.4
20260504160216 68 139 4.0 6.0 0.00 0.00 0.00 35 1006.3
20260504151144 66 150 2.0 2.0 0.00 0.00 0.00 38 1006.7
20260504150642 66 132 3.0 5.0 0.00 0.00 0.00 38 1006.6
20260504150138 66 175 1.0 1.0 0.00 0.00 0.00 37 1006.7
20260504141107 64 139 4.0 5.0 0.00 0.00 0.00 39 1007.1
20260504140604 63 166 1.0 2.0 0.00 0.00 0.00 40 1006.6
20260504130528 59 140 2.0 3.0 0.00 0.00 0.00 39 1006.9
20260504110415 56 134 0.0 1.0 0.00 0.00 0.00 43 1006.7
20260504100332 55 168 0.0 0.0 0.00 0.00 0.00 43 1006.5
20260504081726 54 306 0.0 0.0 0.00 0.00 0.00 39 1005.6
20260504081222 54 306 0.0 0.0 0.00 0.00 0.00 38 1005.6
20260504080718 55 306 0.0 0.0 0.00 0.00 0.00 36 1005.6
20260504080215 56 292 1.0 1.0 0.00 0.00 0.00 36 1005.6
20260504070142 57 87 1.0 1.0 0.00 0.00 0.00 33 1005.8